Flag Weather past 2 weeks in St. John's, Newfoundland and Labrador, Canada

Now
59 °F

Drizzle. Low clouds.


Feels Like: 56 °F
Forecast: 42 / 59 °F
Wind: 16 mph from Southwest

Location: St. John's

Current Time: Oct 30, 2014 at 11:44:29 AM

Latest Report: Oct 30, 2014 at 10:30 AM


Visibility: 10 mi

Pressure: 29.80 "Hg

Humidity: 94%

Dew point: 57 °F

Location of St. John'sLocation

Historic Weather in St. John's — Graph

°F

St. John's temperature yesterday

Maximum temperature yesterday: 41 °F (at 12:30 AM)
Minimum temperature yesterday: 37 °F (at 7:30 PM)
Average temperature yesterday: 40 °F

Past Weeks' High & Low Weather Summary

 TemperatureHumidityPressure
High68 °F (Oct 19, 1:30 PM)100% (Oct 17, 12:30 AM)30.48 "Hg (Oct 17, 12:30 AM)
Low36 °F (Oct 17, 4:30 AM)58% (Oct 21, 2:30 PM)29.11 "Hg (Oct 19, 7:30 AM)
Average49 °F92%29.84 "Hg
* Reported Oct 15 10:30 AM — Oct 30 10:30 AM, St. John's, Weather by CustomWeather, © 2014

Note: Actual official high and low records may vary slightly from our data, if they occured in-between our weather recording intervals... More about our weather records

Advertising

St. John's weather history for previous 24 hours

 ConditionsComfort  
Time TempWeatherWind HumidityBarometerVisibility
10:30 AM
Oct 30
59 °FDrizzle. Low clouds.16 mph94%29.80 "Hg10 mi
9:30 AMN/ASprinkles.23 mphN/AN/A13 mi
9:21 AM57 °FSprinkles. Overcast.21 mph94%29.81 "Hg15 mi
8:30 AM54 °FSprinkles. Overcast.18 mph100%29.83 "Hg15 mi
7:30 AM50 °FOvercast.17 mph100%29.84 "Hg15 mi
6:30 AM50 °FOvercast.22 mph94%29.85 "Hg15 mi
5:30 AM46 °FMostly cloudy.16 mph93%29.88 "Hg15 mi
4:30 AM46 °FPassing clouds.13 mph93%29.92 "Hg15 mi
3:30 AM43 °FMostly cloudy.12 mph100%29.96 "Hg15 mi
2:30 AM41 °FLow clouds.9 mph100%29.99 "Hg15 mi
1:30 AM41 °FLow clouds.10 mph93%30.02 "Hg15 mi
1:21 AM39 °FLow clouds.10 mph93%30.02 "Hg15 mi
12:30 AM39 °FOvercast.9 mph93%30.03 "Hg15 mi
11:30 PM
Oct 29
39 °FLow clouds.7 mph93%30.07 "Hg15 mi
10:30 PM37 °FPassing clouds.6 mph93%30.08 "Hg15 mi
9:30 PM37 °FPassing clouds.9 mph93%30.10 "Hg15 mi
8:30 PM37 °FOvercast.7 mph93%30.11 "Hg15 mi
7:30 PM37 °FPassing clouds.6 mph93%30.12 "Hg15 mi
6:30 PM39 °FPassing clouds.5 mph87%30.11 "Hg15 mi
5:30 PM39 °FPartly sunny.6 mph87%30.11 "Hg15 mi
4:30 PM41 °FOvercast.8 mph81%30.12 "Hg15 mi
3:30 PM41 °FPartly sunny.8 mph81%30.10 "Hg15 mi
2:30 PM41 °FDrizzle. Overcast.7 mph87%30.11 "Hg15 mi
1:30 PM39 °FDrizzle. Overcast.8 mph93%30.11 "Hg15 mi
12:30 PM41 °FDrizzle. Overcast.9 mph93%30.11 "Hg15 mi
11:30 AM39 °FDrizzle. Overcast.9 mph100%30.11 "Hg12 mi
Weather by CustomWeather, © 2014

See weather overviewHow to use our weather pages